Location: Eckley Miners' Village
(40.9930°N, 75.8630°W)
Time: 00:46:15
(UTC-05:00)

Vanguard 1 Rocket - All Passes

Search period start: 07 March 2026 00:00
Search period end: 17 March 2026 01:00
Orbit: 653 x 4214 km, 34.3° (Epoch: 6 March)

Date Brightness Start Highest point End Pass type
(mag) Time Alt. Az. Time Alt. Az. Time Alt. Az.
7 Mar - 07:58:29 10° S 08:01:09 16° SSE 08:03:58 10° ESE daylight
7 Mar - 10:20:33 10° WSW 10:25:01 43° S 10:31:39 10° ESE daylight
7 Mar - 12:44:00 10° W 12:49:52 43° S 13:00:18 10° ESE daylight
7 Mar - 15:08:56 10° WSW 15:16:14 25° SSW 15:27:45 10° SSE daylight
8 Mar - 10:09:17 10° SW 10:13:13 31° SSE 10:18:06 10° E daylight
8 Mar - 12:32:32 10° WSW 12:37:32 45° S 12:45:49 10° ESE daylight
8 Mar - 14:56:37 10° WSW 15:03:04 31° SSW 15:13:56 10° SE daylight
8 Mar - 17:25:28 10° SW 17:30:14 13° SSW 17:36:04 10° S daylight
9 Mar - 08:58:11 10° SSW 09:01:31 20° SSE 09:04:58 10° ESE daylight
9 Mar - 11:21:07 10° WSW 11:25:30 43° S 11:31:53 10° ESE daylight
9 Mar - 13:44:48 10° WSW 13:50:21 36° SSW 13:59:46 10° SE daylight
9 Mar - 16:10:37 10° WSW 16:16:41 18° SSW 16:25:18 10° S daylight
10 Mar - 07:47:46 10° S 07:49:42 12° SSE 07:51:31 10° SE daylight
10 Mar - 10:09:39 10° SW 10:13:40 35° SSE 10:18:33 10° ESE daylight
10 Mar - 12:33:13 10° WSW 12:38:02 40° S 12:45:43 10° ESE daylight
10 Mar - 14:57:46 10° WSW 15:03:34 24° SSW 15:12:31 10° SSE daylight
11 Mar - 08:58:09 10° SW 09:01:56 25° SSE 09:05:44 10° ESE daylight
11 Mar - 11:21:43 10° WSW 11:26:00 41° S 11:32:04 10° ESE daylight
11 Mar - 13:45:42 10° WSW 13:50:52 29° SSW 13:59:03 10° SE daylight
11 Mar - 16:13:34 10° SW 16:17:10 12° SSW 16:21:31 10° S daylight
12 Mar - 07:46:47 10° SSW 07:50:07 17° SSE 07:53:05 10° ESE daylight
12 Mar - 10:10:06 10° WSW 10:14:10 37° S 10:18:58 10° ESE daylight
12 Mar - 12:33:59 10° WSW 12:38:33 34° S 12:45:30 10° SE daylight
12 Mar - 14:59:23 10° WSW 15:04:04 17° SSW 15:10:33 10° SSE daylight
13 Mar - 06:36:08 10° S 06:38:04 12° SSE 06:39:48 10° SE visible
13 Mar - 08:58:18 10° SW 09:02:24 30° SSE 09:06:24 10° ESE daylight
13 Mar - 11:22:21 10° WSW 11:26:31 37° S 11:32:12 10° ESE daylight
13 Mar - 13:46:50 10° WSW 13:51:23 22° SSW 13:58:02 10° SSE daylight
14 Mar - 07:46:23 10° SW 07:50:34 23° SSE 07:54:06 10° ESE daylight
14 Mar - 10:10:35 10° WSW 10:14:41 38° S 10:19:22 10° ESE daylight
14 Mar - 12:34:51 10° WSW 12:39:04 27° SSW 12:45:07 10° SE daylight
14 Mar - 15:02:26 10° SW 15:04:37 11° SSW 15:07:05 10° S daylight
15 Mar - 06:34:30 10° SSW 06:38:33 17° SSE 06:41:46 10° ESE visible
15 Mar - 08:58:34 10° WSW 09:02:54 34° S 09:06:58 10° ESE daylight
15 Mar - 11:23:02 10° WSW 11:27:03 32° S 11:32:16 10° SE daylight
15 Mar - 13:48:24 10° SW 13:51:55 16° SSW 13:56:31 10° SSE daylight
16 Mar - 05:23:15 10° S 05:26:14 12° SSE 05:28:44 10° SE visible
16 Mar - 07:46:14 10° SW 07:51:05 29° SSE 07:54:57 10° ESE daylight
16 Mar - 10:11:08 10° WSW 10:15:12 36° S 10:19:42 10° ESE daylight
16 Mar - 12:35:54 10° WSW 12:39:35 20° SSW 12:44:29 10° SSE daylight
